Погода в Бобровке

Россия / Самарская область     53°09′17″N   50°38′58″E
темп.,
°C
ветер,
м/с
пор.,
м/с
влажн.,
%
обл.,
%
осадки,
мм/ч
давл.,
гПа
погр.,
м
26 января, вт
вт2601:00−3ю41094100 0.1 1030508
04:00−1ююв41094100 0.1 1029579
07:00−2ю599299 0.0 1028534
10:00−3ююв5993100 0.0 1029440
13:00−4ю6995100 0.0 1028459
16:00−4ю5992100 0.1 1027528
19:00−7ююв41195100 0.0 1028347
22:00−5ю41295100 0.0 1028527
27 января, ср
ср2701:00−3ю41094100 0.0 1028490
04:00−6ююв41095100 0.0 1028269
07:00−6ююв51194100 0.0 1027327
10:00−7ю5109599 0.0 1028336
13:00−5ю61193100 0.0 1027380
16:00−5ю51291100 0.0 1026383
19:00−7ююв41192100 0.0 1026337
22:00−6ю41391100 0.0 1025384
28 января, чт
чт2801:00−6ю41391100 0.0 1025367
04:00−7ююв41090100 0.0 1024322
07:00−8ююв3991100 0.0 1023281
10:00−8юв3894100 0.0 1023344
13:00−6ююв4892100 0.0 1022398
16:00−7юв3694100 0.0 1020215
19:00−8вюв3693100 0.0 1020105
22:00−9юв3494100 0.0 101955
29 января, пт
пт2901:00−10вюв3694100 0.0 101891
04:00−8вюв4893100 0.0 1016203
07:00−7вюв4892100 0.0 1014262
10:00−7вюв51191100 0.0 1012353
13:00−3юв4988100 0.0 1010533
16:00−3юв4896100 0.3 1007520
19:00−3юв4897100 1.7 1006434
22:00−2ююв2598100 3.4 1006232
30 января, сб
сб3001:00−4юз3396100 0.6 100744
04:00−7юз349570 0.6 100957
07:00−9ю349765 0.0 101070
10:00−8ююв359565 0.0 1011118
13:00−2ю51292100 0.0 1011368
16:00−2ю51293100 0.0 1011474
19:000ю61193100 0.0 1011475
22:00+1ю51196100 0.0 1012461